[[{"header":{"parameterUnit":"m.s-1","parameterCategory":1,"la1":30.2991,"la2":30.254,"lo1":-89.0895,"lo2":-89.0444,"dy":0.0017,"dx":0.0017,"nx":28,"ny":28,"refTime":"2023-10-01T09:00:00:Z","depth":0,"parameterNumber":2,"parameterNumberName":"U-component_of_WINDS"},"data":[0,0,0,0,0,0,0,0,0,0,0,0,0,0,0,0,0,0,0,0,0,0,0,0,0,0,0,0,0,0,0,0,0,0,0,0,0,0,0,0,0,0,0,0,0,0,0,0,0,0,0,0,0,0,0,0,0,0,-6.3157,-6.3157,0,-6.3196,-6.3197,-6.3197,-6.2986,-6.2979,-6.2973,-6.2968,-6.301,-6.3017,-6.3024,0,0,0,0,0,0,0,0,0,0,0,0,0,-6.2898,-6.2904,-6.3157,-6.3157,-6.3158,-6.3196,-6.3197,-6.3197,-6.2987,-6.2979,-6.2972,-6.2965,-6.3008,-6.3016,-6.3024,0,0,0,0,0,0,0,0,0,0,0,0,0,-6.2982,-6.2906,-6.3156,-6.3057,-6.3049,-6.3196,-6.3197,-6.3197,-6.2988,-6.2979,-6.297,-6.2961,-6.3005,-6.3015,-6.3025,-6.3271,0,0,-6.3056,-6.3061,0,0,0,0,0,0,0,0,-6.2977,-6.2992,-6.3071,-6.3064,-6.3055,-6.3076,-6.3121,-6.3222,-6.299,-6.3011,-6.2967,-6.2957,-6.304,-6.3047,-6.3074,-6.3273,-6.3275,-6.3057,-6.3064,-6.3068,-6.3071,0,0,0,0,0,0,0,-6.2972,-6.2989,-6.3172,-6.3073,-6.3063,-6.301,-6.3012,-6.3139,-6.3076,-6.3009,-6.2993,-6.3001,-6.3034,-6.3065,-6.3074,-6.3275,-6.3057,-6.3066,-6.3072,-6.3076,-6.3675,-6.3684,0,0,0,0,0,0,-6.2979,-6.2985,-6.3171,-6.3173,-6.2993,-6.3023,-6.3024,-6.3079,-6.3074,-6.3065,-6.3009,-6.2991,-6.3052,-6.3062,-6.3074,-6.3359,-6.3068,-6.3077,-6.3083,-6.3665,-6.3677,-6.3687,0,0,0,0,0,0,-6.2975,-6.2998,-6.3169,-6.3075,-6.3093,-6.3037,-6.3099,-6.3084,-6.3115,-6.3074,-6.3062,-6.3052,-6.3045,-6.306,-6.3223,-6.3358,-6.3082,-6.3091,-6.3653,-6.3669,-6.3682,-6.3933,0,0,0,0,0,0,-6.2968,-6.2997,-6.309,-6.3079,-6.3099,-6.3318,-6.3108,-6.3092,-6.3133,-6.311,-6.3112,-6.3103,-6.3039,-6.3209,-6.3233,-6.3367,-6.3099,-6.3641,-6.366,-6.3677,-6.3913,-6.3955,-6.3991,0,0,0,0,0,-6.296,-6.316,-6.3096,-6.312,-6.3214,-6.3326,-6.3337,-6.3259,-6.3145,-6.3237,-6.3211,-6.3103,-6.334,-6.3227,-6.3253,-6.3392,-6.3632,-6.3655,-6.3676,-6.3895,-6.3947,-6.399,0,0,0,0,0,0,-6.319,-6.3157,-6.3085,-6.3288,-6.3312,-6.329,-6.3405,-6.3316,-6.3373,-6.3349,-6.325,-6.3252,-6.3432,-6.3428,-6.3303,-6.3628,-6.3466,-6.3494,-6.3624,-6.3672,-6.3711,-6.3707,-6.3108,0,0,0,0,0,-6.3264,-6.3358,-6.3324,-6.3507,-6.3522,-6.3462,-6.3508,-6.3446,-6.3466,-6.3475,-6.346,-6.3484,-6.3563,-6.3617,-6.3688,-6.3911,-6.3908,-6.4019,-6.4059,-6.4091,-6.4116,-6.4232,-6.428,-6.376,-6.3759,-6.3759,0,0,-6.3419,-6.3413,-6.3478,-6.3553,-6.3563,-6.3663,-6.3472,-6.3585,-6.3657,-6.3492,-6.3644,-6.3635,-6.3655,-6.3848,-6.3933,-6.3851,-6.4259,-6.4119,-6.4145,-6.4152,-6.4259,-6.4309,-6.4353,-6.3774,-6.3772,-6.3769,0,0,-6.3751,-6.3757,-6.3908,-6.3922,-6.394,-6.3899,-6.3936,-6.3927,-6.3914,-6.4065,-6.3942,-6.4027,-6.4166,-6.4185,-6.4213,-6.4551,-6.4454,-6.4577,-6.4781,-6.4895,-6.4936,-6.4972,-6.5091,-6.5135,-6.4603,-6.4604,-6.4604,0,-6.3941,-6.4086,-6.3997,-6.4119,-6.4154,-6.4008,-6.416,-6.4178,-6.422,-6.4248,-6.4155,-6.4325,-6.4329,-6.4524,-6.4606,-6.4634,-6.4672,-6.4576,-6.4937,-6.4972,-6.5004,-6.5117,-6.5162,-6.4618,-6.4617,-6.4615,-6.4614,0,-6.4318,-6.442,-6.454,-6.4581,-6.4631,-6.4768,-6.47,-6.476,-6.4694,-6.4662,-6.4817,-6.4816,-6.4883,-6.4925,-6.4862,-6.5111,-6.5059,-6.4954,-6.4789,-6.507,-6.5174,-6.5217,-6.4639,-6.4634,-6.463,-6.4626,0,0,-6.4796,-6.4786,-6.4832,-6.4848,-6.4857,-6.4934,-6.5063,-6.5128,-6.5181,-6.5215,-6.532,-6.544,-6.5342,-6.5374,-6.5311,-6.5412,-6.5678,-6.5293,-6.5292,-6.5363,-6.5951,-6.6029,-6.608,-6.5613,-6.5621,-6.5628,-6.5948,0,-6.5119,-6.5339,-6.5263,-6.5487,-6.5579,-6.5441,-6.5553,-6.5571,-6.5545,-6.5619,-6.559,-6.5676,-6.5541,-6.5559,-6.5653,-6.5626,-6.5794,-6.5602,-6.571,-6.5715,-6.5708,-6.6135,-6.6218,-6.6521,-6.5989,-6.5995,-6.6,0,-6.5526,-6.5574,-6.5807,-6.5798,-6.5834,-6.5937,-6.5988,-6.6062,-6.6078,-6.6052,-6.6088,-6.6003,-6.6129,-6.5965,-6.6136,-6.6007,-6.6047,-6.604,-6.605,-6.6056,-6.5874,-6.6151,-6.6616,-6.6661,-6.6064,-6.6059,-6.6054,0,-6.585,-6.5973,-6.6127,-6.6146,-6.614,-6.6215,-6.6216,-6.6223,-6.6267,-6.6313,-6.6339,-6.6401,-6.6434,-6.6483,-6.6417,-6.6304,-6.6597,-6.6428,-6.6578,-6.6581,-6.6646,-6.6642,-6.7122,-6.6675,-6.6674,-6.6673,-6.6672,0,-6.6218,-6.6365,-6.6272,-6.6367,-6.6528,-6.6439,-6.6601,-6.6586,-6.6594,-6.6684,-6.6569,-6.6656,-6.6564,-6.6642,-6.6591,-6.674,-6.6756,-6.6738,-6.6722,-6.6748,-6.675,-6.6771,-6.6748,-6.6685,-6.6682,-6.668,-6.6678,0,-6.6606,-6.6549,-6.6708,-6.6689,-6.6688,-6.6807,-6.6791,-6.6878,-6.6843,-6.6958,-6.698,-6.6926,-6.7011,-6.695,-6.7037,-6.7002,-6.7197,-6.7153,-6.7192,-6.7179,-6.7332,-6.7318,-6.7841,-6.7904,-6.7419,-6.7423,-6.7427,0,-6.6844,-6.6953,-6.6946,-6.6997,-6.7005,-6.709,-6.7133,-6.705,-6.7099,-6.7126,-6.721,-6.7285,-6.7341,-6.7485,-6.7453,-6.7518,-6.7474,-6.7653,-6.7483,-6.7504,-6.7474,-6.7468,-6.7478,-6.7687,-6.7693,-6.7697,-6.7701,0,-6.7271,-6.7237,-6.7303,-6.7361,-6.7415,-6.7456,-6.7488,-6.7536,-6.7452,-6.7514,-6.7599,-6.7643,-6.7729,-6.7806,-6.7859,-6.7859,-6.7767,-6.7755,-6.7793,-6.7819,-6.7835,-6.7826,-6.7283,-6.7743,-6.7739,-6.7736,-6.7733,-6.7732,-6.759,-6.768,-6.7689,-6.7766,-6.7781,-6.7813,-6.7893,-6.7868,-6.7937,-6.8001,-6.7948,-6.805,-6.8063,-6.8124,-6.8136,-6.8215,-6.8141,-6.8197,-6.821,-6.8225,-6.8246,-6.7825,-6.8224,-6.8223,-6.8222,-6.8221,-6.822,0,-6.8009,-6.8008,-6.808,-6.8127,-6.8188,-6.8095,-6.8125,-6.8181,-6.8273,-6.8292,-6.8349,-6.8447,-6.852,-6.8495,-6.8559,-6.8627,-6.8586,-6.8647,-6.864,-6.8642,-6.8309,-6.8268,-6.8679,-6.8679,-6.8679,-6.8679,-6.8679,-6.8678,-6.8235,-6.8382,-6.835,-6.8503,-6.85,-6.8599,-6.8624,-6.8652,-6.8667,-6.8781,-6.8841,-6.8823,-6.8825,-6.8888,-6.8951,-6.8941,-6.897,-6.9046,-6.9022,-6.8711,-6.8665,-6.8622,-6.8584,-6.9054,-6.9054,-6.9347,-6.935,-6.9352]},{"header":{"parameterUnit":"m.s-1","parameterCategory":1,"la1":30.2991,"la2":30.254,"lo1":-89.0895,"lo2":-89.0444,"dy":0.0017,"dx":0.0017,"nx":28,"ny":28,"refTime":"2023-10-01T09:00:00:Z","depth":0,"parameterNumber":3,"parameterNumberName":"V-component_of_WINDS"},"data":[0,0,0,0,0,0,0,0,0,0,0,0,0,0,0,0,0,0,0,0,0,0,0,0,0,0,0,0,0,0,0,0,0,0,0,0,0,0,0,0,0,0,0,0,0,0,0,0,0,0,0,0,0,0,0,0,0,0,-1.985,-1.985,0,-1.9857,-1.9857,-1.9857,-1.985,-1.985,-1.985,-1.9849,-1.9855,-1.9856,-1.9856,0,0,0,0,0,0,0,0,0,0,0,0,0,-1.9828,-1.9828,-1.985,-1.985,-1.985,-1.9857,-1.9857,-1.9857,-1.985,-1.985,-1.985,-1.9849,-1.9855,-1.9856,-1.9856,0,0,0,0,0,0,0,0,0,0,0,0,0,-1.9837,-1.9829,-1.985,-1.9848,-1.9847,-1.9857,-1.9857,-1.9857,-1.985,-1.985,-1.9849,-1.9849,-1.9855,-1.9856,-1.9856,-1.9868,0,0,-1.9858,-1.9858,0,0,0,0,0,0,0,0,-1.9836,-1.9837,-1.9848,-1.9848,-1.9848,-1.9852,-1.9852,-1.9861,-1.985,-1.9849,-1.9849,-1.9849,-1.9855,-1.9855,-1.9857,-1.9869,-1.9869,-1.9858,-1.9859,-1.9859,-1.9859,0,0,0,0,0,0,0,-1.9835,-1.9837,-1.9853,-1.9848,-1.9848,-1.9845,-1.9846,-1.9853,-1.9854,-1.9849,-1.9849,-1.985,-1.9854,-1.9857,-1.9857,-1.9869,-1.9858,-1.9859,-1.9859,-1.9859,-1.9887,-1.9888,0,0,0,0,0,0,-1.9835,-1.9837,-1.9853,-1.9853,-1.9841,-1.9846,-1.9847,-1.9851,-1.9854,-1.9854,-1.985,-1.9849,-1.9856,-1.9857,-1.9858,-1.987,-1.9859,-1.9859,-1.986,-1.9887,-1.9888,-1.9888,0,0,0,0,0,0,-1.9835,-1.9837,-1.9852,-1.9845,-1.9846,-1.9847,-1.9852,-1.9852,-1.9854,-1.9855,-1.9854,-1.9853,-1.9856,-1.9857,-1.9865,-1.987,-1.986,-1.986,-1.9887,-1.9887,-1.9888,-1.9897,0,0,0,0,0,0,-1.9834,-1.9837,-1.9842,-1.9845,-1.9847,-1.9861,-1.9852,-1.9852,-1.9855,-1.9854,-1.9857,-1.9857,-1.9855,-1.9864,-1.9866,-1.9871,-1.9861,-1.9886,-1.9887,-1.9888,-1.9896,-1.9898,-1.9899,0,0,0,0,0,-1.9834,-1.9845,-1.9843,-1.9845,-1.9854,-1.9861,-1.9862,-1.9861,-1.9856,-1.986,-1.986,-1.9857,-1.987,-1.9865,-1.9867,-1.9872,-1.9886,-1.9887,-1.9888,-1.9895,-1.9897,-1.9899,0,0,0,0,0,0,-1.9843,-1.9845,-1.9843,-1.9855,-1.9858,-1.986,-1.9866,-1.9863,-1.9867,-1.9866,-1.9863,-1.9864,-1.9872,-1.9873,-1.9868,-1.9883,-1.9877,-1.9878,-1.9882,-1.9884,-1.9885,-1.9885,-1.9861,0,0,0,0,0,-1.9847,-1.9853,-1.9854,-1.9865,-1.9867,-1.9866,-1.9869,-1.9867,-1.987,-1.9871,-1.9872,-1.9874,-1.9878,-1.9881,-1.9885,-1.9896,-1.9895,-1.99,-1.9902,-1.9903,-1.9904,-1.9908,-1.9909,-1.9891,-1.9891,-1.9891,0,0,-1.9854,-1.9856,-1.986,-1.9867,-1.9869,-1.9874,-1.9867,-1.9874,-1.9878,-1.9872,-1.988,-1.988,-1.9882,-1.9891,-1.9895,-1.9892,-1.9909,-1.9904,-1.9905,-1.9905,-1.9909,-1.991,-1.9912,-1.9891,-1.9891,-1.9891,0,0,-1.9871,-1.9873,-1.9882,-1.9883,-1.9886,-1.9885,-1.9887,-1.9889,-1.9889,-1.9896,-1.9892,-1.9895,-1.9904,-1.9905,-1.9906,-1.992,-1.9916,-1.9921,-1.9929,-1.9933,-1.9934,-1.9935,-1.9939,-1.994,-1.9922,-1.9922,-1.9922,0,-1.988,-1.9889,-1.9886,-1.9893,-1.9895,-1.989,-1.9897,-1.9899,-1.9903,-1.9904,-1.99,-1.9909,-1.991,-1.9918,-1.9921,-1.9923,-1.9924,-1.9921,-1.9934,-1.9935,-1.9936,-1.994,-1.9941,-1.9923,-1.9923,-1.9923,-1.9923,0,-1.9898,-1.9904,-1.9911,-1.9914,-1.9917,-1.9924,-1.9921,-1.9924,-1.9922,-1.9921,-1.9927,-1.9928,-1.9932,-1.9933,-1.9931,-1.9941,-1.9938,-1.9935,-1.9928,-1.9939,-1.9942,-1.9943,-1.9924,-1.9923,-1.9923,-1.9923,0,0,-1.9922,-1.9923,-1.9925,-1.9925,-1.9927,-1.9931,-1.9937,-1.994,-1.9942,-1.9944,-1.9948,-1.9953,-1.9949,-1.9951,-1.9948,-1.9952,-1.9961,-1.9947,-1.9947,-1.9949,-1.9969,-1.9972,-1.9973,-1.9958,-1.9958,-1.9959,-1.9969,0,-1.9938,-1.9948,-1.9945,-1.9955,-1.9959,-1.9953,-1.9958,-1.9959,-1.9957,-1.996,-1.9959,-1.9962,-1.9957,-1.9958,-1.9961,-1.9959,-1.9965,-1.9958,-1.9961,-1.9961,-1.996,-1.9975,-1.9978,-1.9988,-1.997,-1.997,-1.997,0,-1.9957,-1.9959,-1.997,-1.9968,-1.997,-1.9975,-1.9976,-1.9979,-1.9979,-1.9978,-1.9978,-1.9975,-1.9979,-1.9972,-1.9977,-1.9973,-1.9974,-1.9973,-1.9973,-1.9973,-1.9966,-1.9975,-1.9991,-1.9992,-1.9972,-1.9972,-1.9972,0,-1.9972,-1.9978,-1.9984,-1.9985,-1.9984,-1.9986,-1.9986,-1.9986,-1.9987,-1.9988,-1.9988,-1.999,-1.999,-1.9991,-1.9987,-1.9983,-1.9992,-1.9986,-1.999,-1.999,-1.9992,-1.9992,-2.0008,-1.9994,-1.9994,-1.9994,-1.9994,0,-1.9989,-1.9995,-1.999,-1.9994,-2.0,-1.9996,-2.0002,-2.0001,-2.0,-2.0002,-1.9997,-2.0,-1.9995,-1.9996,-1.9993,-1.9997,-1.9998,-1.9996,-1.9995,-1.9996,-1.9996,-1.9996,-1.9995,-1.9994,-1.9994,-1.9994,-1.9994,0,-2.0007,-2.0004,-2.001,-2.0008,-2.0007,-2.0012,-2.0009,-2.0012,-2.001,-2.0013,-2.0014,-2.001,-2.0011,-2.0007,-2.0008,-2.0006,-2.0011,-2.0009,-2.0011,-2.001,-2.0015,-2.0014,-2.0031,-2.0033,-2.0018,-2.0018,-2.0018,0,-2.0018,-2.0022,-2.002,-2.0021,-2.0021,-2.0023,-2.0024,-2.0019,-2.002,-2.0019,-2.0022,-2.0023,-2.0023,-2.0025,-2.0022,-2.0022,-2.002,-2.0026,-2.002,-2.0021,-2.0019,-2.0019,-2.0018,-2.0027,-2.0028,-2.0028,-2.0028,0,-2.0037,-2.0034,-2.0036,-2.0037,-2.0038,-2.0038,-2.0038,-2.0039,-2.0034,-2.0035,-2.0036,-2.0036,-2.0036,-2.0037,-2.0036,-2.0034,-2.003,-2.003,-2.003,-2.0031,-2.0032,-2.0031,-2.0014,-2.0029,-2.0029,-2.0029,-2.0029,-2.0029,-2.0051,-2.0053,-2.0052,-2.0053,-2.0052,-2.0052,-2.0054,-2.0051,-2.0052,-2.0052,-2.0049,-2.005,-2.0048,-2.0046,-2.0045,-2.0045,-2.0042,-2.0044,-2.0044,-2.0044,-2.0045,-2.0032,-2.0045,-2.0045,-2.0045,-2.0045,-2.0045,0,-2.0068,-2.0067,-2.0068,-2.0067,-2.0068,-2.0063,-2.0062,-2.0063,-2.0064,-2.0062,-2.0062,-2.0063,-2.0062,-2.0059,-2.0058,-2.0059,-2.0056,-2.0058,-2.0058,-2.0058,-2.0048,-2.0047,-2.006,-2.006,-2.006,-2.006,-2.006,-2.006,-2.0078,-2.0082,-2.0079,-2.0082,-2.008,-2.0081,-2.008,-2.0079,-2.0078,-2.0078,-2.0078,-2.0075,-2.0072,-2.0071,-2.007,-2.0069,-2.0068,-2.0071,-2.0069,-2.006,-2.0059,-2.0057,-2.0056,-2.0071,-2.0071,-2.0079,-2.0079,-2.0079]}]]